Location: Cheyres
(46.8153°N, 6.7877°E)
Time: 12:31:01
(UTC+00:00)

Cosmos 990 Rocket - Visible Passes

Search period start: 20 September 2021 00:00
Search period end: 30 September 2021 00:00
Orbit: 747 x 769 km, 74.0° (Epoch: 19 September)

Date Brightness Start Highest point End Pass type
(mag) Time Alt. Az. Time Alt. Az. Time Alt. Az.
20 Sep 6.3 20:57:40 15° NNE 20:57:40 15° NNE 20:58:29 10° NNE visible
20 Sep 6.6 22:37:41 16° NNW 22:37:41 16° NNW 22:39:24 10° N visible
21 Sep 6.3 20:17:53 11° NE 20:17:53 11° NE 20:18:09 10° NE visible
21 Sep 6.3 21:57:54 19° NNW 21:57:54 19° NNW 21:59:48 10° N visible
22 Sep 6.0 21:18:01 22° N 21:18:01 22° N 21:19:56 10° NNE visible
23 Sep 6.9 04:11:32 10° NNE 04:13:45 13° NE 04:15:58 10° ENE visible
23 Sep 5.7 20:38:01 23° NNE 20:38:01 23° NNE 20:39:54 10° NNE visible
23 Sep 6.7 22:18:00 15° NW 22:18:00 15° NW 22:20:22 10° NNW visible
24 Sep 5.6 19:57:48 22° NE 19:57:48 22° NE 19:59:41 10° NNE visible
24 Sep 6.2 21:37:47 22° NW 21:37:47 22° NW 21:40:58 10° N visible
25 Sep 6.4 04:31:44 10° N 04:36:00 24° NE 04:40:14 10° ESE visible
25 Sep 5.4 19:17:11 21° NE 19:17:11 21° NE 19:19:14 10° NE visible
25 Sep 5.4 20:57:06 35° NW 20:57:06 35° NW 21:01:14 10° N visible
26 Sep 6.8 03:52:17 10° N 03:55:27 16° NE 03:58:35 10° E visible
26 Sep 5.2 18:35:01 19° E 18:35:01 19° E 18:38:21 10° NE visible
26 Sep 4.3 20:11:01 10° SSW 20:16:07 62° WNW 20:21:17 10° NNE visible
26 Sep 6.9 21:57:08 10° WNW 21:59:06 12° NW 22:01:05 10° NNW visible
27 Sep 7.3 03:14:18 10° NE 03:14:44 10° NE 03:15:09 10° NE visible
27 Sep 5.1 04:52:48 10° NNW 04:57:55 50° ENE 05:03:00 10° SE visible
27 Sep 5.8 17:54:41 10° E 17:55:06 10° E 17:55:30 10° E visible
27 Sep 3.8 19:30:49 10° SSW 19:35:57 77° ESE 19:41:11 10° NNE visible
27 Sep 6.4 21:14:51 10° W 21:18:27 19° NW 21:22:04 10° N visible
28 Sep 6.0 04:12:55 10° N 04:17:34 31° ENE 04:22:12 10° ESE visible
28 Sep 4.2 18:51:05 10° S 18:55:56 44° ESE 19:00:51 10° NNE visible
28 Sep 5.8 20:33:28 10° WSW 20:37:56 29° NW 20:42:28 10° N visible
29 Sep 6.7 03:33:17 10° N 03:37:06 20° NE 03:40:54 10° E visible
29 Sep 4.9 18:11:53 10° SSE 18:16:02 25° E 18:20:14 10° NE visible
29 Sep 4.9 19:52:36 10° SW 19:57:35 47° WNW 20:02:37 10° NNE visible
